Airfield :
LOGIN :

Register | Disclaimer

   EN    FR    IT 

 










Legend :    VFR   Marginal VFR   IFR   Intensive IFR   Very Intensive IFR
Visi :
Ceiling :
>= 8 km
>= 3000ft
5 to 8 km
1000 to 3000 ft
1500m to 5 km
500 to 1000 ft
800 to 1500m
200 to 500 ft
< 800m
< 200 ft
Symbols :   Thunderstorms  Fog  Heavy snow  Heavy precipitations  Wind > 20 kt
SIGMETs :     Misc.  Thunderstorms  Icing  Turbulence  Mountain Waves  Volcanic Ashes






- Airport Elevation : 13 ft
- IATA code : CAG


LIEE - Cagliari Elmas

CURRENT METAR :
  • 261150Z 18013KT 9999 FEW030 22/17 Q1011

EXPIRED METARs :
  • 261120Z 18014KT CAVOK 22/16 Q1011
  • 261050Z 19014KT 9999 FEW030 22/16 Q1012
  • 261020Z 17010KT CAVOK 22/16 Q1012
  • 260950Z 18010KT 140V210 CAVOK 21/16 Q1013
  • 260920Z 16007KT 140V200 CAVOK 21/16 Q1013

TAF TAF LIEE
Valid from the 26 at 12:00 until the 27 at 12:00 UTC


261100Z 2612/2712 22010KT 9999 SCT030
TEMPO 2615/2620 4000 TSRA
BECMG 2620/2622 30015KT



MET'MAP, your aeronautical weather chart ! - Copyright ORBIFLY December 2007 - Disclaimer

ORBIFLY MET'MAP TEAM :

Programming & Development : Alexandra Zaïnal
Concept & original design : Baudouin d'Aumeries
Assistance for programming : Marc-Olivier Méhu
Technical & hardware support : Manuel Goepfert

Contact : metmap@orbifly.com




SOURCES & CREDITS :

   NOAA